Date,TemperatureHighF,TemperatureAvgF,TemperatureLowF,DewpointHighF,DewpointAvgF,DewpointLowF,HumidityHigh,HumidityAvg,HumidityLow,PressureMaxIn,PressureMinIn,WindSpeedMaxMPH,WindSpeedAvgMPH,GustSpeedMaxMPH,PrecipitationSumIn
2012-1-1,76.0,72.3,69.4,30.5,26.2,23.1,23,18,15,30.19,30.08,9,8,18,0.00
2012-1-2,70.3,67.8,64.9,21.3,20.1,18.7,18,16,15,30.17,30.04,10,9,19,0.00
2012-1-6,40.2,40.2,40.2,27.0,27.0,27.0,59,59,59,29.95,29.95,0,0,0,0.00
2012-1-11,44.0,43.8,43.6,29.0,28.9,28.7,56,55,55,29.95,29.93,0,0,0,0.00
2012-1-14,72.2,64.1,55.8,20.7,10.6,-4.1,25,14,5,30.07,30.01,2,0,4,0.00
2012-1-15,67.2,58.1,49.4,47.5,37.9,26.9,80,52,22,30.05,29.94,8,1,12,0.01
2012-1-16,54.8,51.5,48.9,46.3,46.1,45.8,89,82,73,29.98,29.97,0,0,0,0.03
2012-1-21,71.7,70.5,69.7,34.2,31.9,26.8,27,24,19,29.78,29.75,8,5,12,0.00
2012-1-27,73.3,73.3,73.3,29.8,29.8,29.8,20,20,20,29.87,29.87,1,1,1,0.00
2012-1-29,76.8,70.3,57.6,29.7,25.7,22.8,30,19,14,30.08,29.90,7,3,12,0.00
2012-1-30,59.4,55.4,51.9,22.4,20.5,18.7,31,26,21,29.91,29.89,1,0,1,0.00
2012-2-4,68.6,61.5,48.0,25.6,22.7,18.1,41,23,15,30.00,29.90,5,2,8,0.00
2012-2-5,72.2,68.5,61.4,26.4,24.9,23.1,26,20,16,29.88,29.86,4,2,5,0.00
2012-2-17,44.7,44.7,44.7,39.9,39.9,39.9,83,83,83,30.02,30.02,0,0,0,0.00
2012-2-20,51.3,51.0,50.3,26.9,26.4,25.9,40,38,37,29.92,29.91,1,0,1,0.00
2012-2-28,47.3,47.3,47.3,29.1,29.1,28.9,49,49,49,30.04,30.04,1,0,1,0.00
2012-3-3,53.6,52.0,49.7,13.3,12.1,10.8,23,20,19,30.15,30.14,1,0,2,0.00
2012-3-10,65.6,58.6,47.7,28.8,26.9,23.8,47,31,21,29.95,29.87,8,4,17,0.00
2012-3-11,75.6,65.9,40.9,28.2,21.5,16.0,54,21,11,29.99,29.84,6,2,9,0.00
2012-3-15,70.7,70.7,70.7,11.4,11.4,11.4,10,10,10,29.81,29.81,0,0,0,0.00
2012-3-16,84.0,84.0,84.0,-5.2,-5.2,-5.2,3,3,3,29.74,29.74,5,5,5,0.00
2012-3-17,80.0,72.5,63.4,33.0,23.6,12.2,32,18,8,29.63,29.53,9,6,13,0.00
2012-3-18,63.2,50.7,39.9,44.8,36.7,27.4,92,62,32,29.75,29.47,14,5,20,0.16
2012-3-25,85.3,75.6,55.1,39.3,22.8,6.0,53,17,6,29.76,29.67,8,3,14,0.00
2012-3-30,86.1,86.1,86.1,20.6,20.6,20.6,9,9,9,29.74,29.74,3,3,4,0.00
2012-4-2,59.3,58.5,57.8,9.5,8.9,7.9,14,14,13,29.77,29.74,7,4,10,0.00
2012-4-6,80.9,69.9,53.9,25.0,19.2,11.3,32,16,8,29.86,29.74,9,3,11,0.00
2012-4-7,89.1,67.1,43.5,26.7,20.1,11.9,50,22,6,29.92,29.78,6,1,9,0.00
2012-4-8,93.6,72.7,44.4,27.9,22.3,14.8,50,20,7,29.93,29.75,8,2,9,0.00
2012-4-22,82.3,82.3,82.3,22.5,22.5,22.5,11,11,11,29.64,29.64,0,0,1,0.00
2012-4-28,84.3,78.0,70.2,35.5,32.7,31.0,28,20,15,29.55,29.51,3,1,4,0.00
2012-5-10,77.1,67.3,61.6,37.6,36.2,34.1,39,32,23,29.64,29.59,0,0,1,0.00
2012-5-11,61.8,56.7,52.1,38.2,37.0,35.9,59,48,39,29.69,29.64,0,0,2,0.00
2012-5-13,98.5,96.0,87.0,23.8,15.0,4.1,10,5,3,29.71,29.64,7,4,9,0.00
2012-5-22,91.9,91.9,91.8,19.0,19.0,19.0,7,7,7,29.52,29.52,5,4,8,0.00
2012-5-26,83.0,74.5,59.0,43.2,27.3,17.3,26,18,14,29.70,29.59,10,4,18,0.00
2012-5-27,85.7,68.3,44.3,22.5,11.8,-14.6,39,15,2,29.82,29.69,6,2,9,0.00
2012-5-28,94.2,73.7,44.3,25.4,13.0,-8.4,42,15,2,29.80,29.66,5,1,8,0.00
2012-5-29,88.0,87.8,87.7,3.7,3.6,3.5,4,4,4,29.66,29.66,4,4,5,0.00
2012-5-30,78.5,77.4,76.5,19.6,16.4,13.9,11,10,9,29.61,29.60,1,0,2,0.00
2012-6-17,105.1,101.3,89.6,41.9,35.9,32.4,16,11,9,29.58,29.51,9,5,13,0.00
2012-6-21,85.0,85.0,85.0,39.4,39.4,39.4,20,20,20,29.50,29.50,0,0,0,0.00
2012-6-22,107.8,104.9,97.6,47.1,43.0,38.6,17,13,10,29.55,29.38,6,4,10,0.00
2012-6-24,97.6,94.0,88.2,56.9,54.0,51.9,33,26,23,29.56,29.53,7,4,11,0.00
2012-6-25,93.3,91.8,90.4,58.7,57.3,56.0,34,32,29,29.58,29.55,3,1,3,0.00
2012-6-30,104.3,100.5,87.9,53.8,45.4,39.8,24,16,13,29.56,29.43,10,7,22,0.00
2012-7-1,99.5,96.7,94.7,44.2,41.9,37.2,17,15,14,29.45,29.42,3,2,5,0.00
2012-7-4,72.0,71.2,70.3,69.6,69.0,68.5,95,93,90,29.71,29.69,0,0,0,0.42
2012-7-8,89.1,86.3,83.9,63.8,62.6,60.9,51,45,39,29.63,29.61,2,0,3,0.00
2012-7-9,98.2,95.7,91.5,57.1,54.7,52.6,30,26,23,29.58,29.55,4,2,4,0.00
2012-7-10,106.2,93.1,78.1,66.2,58.2,53.6,54,33,19,29.65,29.45,6,2,0,0.00
2012-7-12,86.5,84.7,83.2,66.9,66.3,65.1,58,54,49,29.63,29.59,4,3,5,0.00
2012-7-15,99.1,82.7,68.4,68.4,64.7,60.6,93,61,30,29.73,29.57,12,5,22,0.33
2012-7-16,94.7,89.6,82.4,66.8,62.3,60.2,52,41,34,29.66,29.59,4,2,7,0.00
2012-7-19,89.4,86.4,83.4,54.6,53.1,50.8,36,32,27,29.69,29.68,3,1,3,0.00
2012-7-22,78.9,77.6,74.5,70.6,69.3,67.7,87,76,70,29.76,29.71,2,0,4,0.03
2012-7-23,78.8,77.4,71.8,72.3,69.9,67.4,89,78,69,29.72,29.66,4,1,7,0.19
2012-7-24,79.7,77.9,75.0,66.7,65.5,64.1,75,66,62,29.70,29.68,3,1,4,0.25
2012-7-29,73.4,72.4,70.1,72.8,71.4,68.9,98,97,94,29.79,29.72,2,0,4,1.48
2012-7-30,95.9,87.7,70.6,72.3,63.0,56.8,99,48,28,29.80,29.66,5,2,6,0.01
2012-8-5,80.3,78.0,74.0,70.0,67.9,64.5,87,71,63,29.77,29.64,9,3,9,0.12
2012-8-6,100.1,91.7,78.8,69.4,63.1,58.7,73,40,26,29.72,29.62,7,4,11,0.07
2012-8-7,95.2,92.1,88.8,63.4,61.0,58.8,43,36,30,29.60,29.58,1,0,1,0.00
2012-8-8,78.0,78.0,78.0,72.4,72.4,72.4,83,83,83,29.53,29.53,2,2,2,0.00
2012-8-14,82.5,75.4,73.4,71.2,68.7,64.7,89,80,55,29.57,29.55,5,1,11,0.15
2012-8-17,75.5,75.3,75.2,71.3,71.1,71.0,87,87,86,29.73,29.72,1,0,1,0.01
2012-8-19,74.3,73.4,72.4,71.3,70.3,68.1,93,90,82,29.64,29.61,8,2,9,0.47
2012-8-29,101.5,101.5,101.5,41.5,41.5,41.5,13,13,13,29.51,29.51,2,2,4,0.00
2012-8-31,87.0,86.8,86.7,63.1,62.9,62.8,45,45,45,29.62,29.62,4,4,5,0.00
2012-9-9,89.3,85.6,80.1,64.0,60.2,58.3,58,43,37,29.73,29.68,9,4,12,0.10
2012-9-14,85.7,79.7,73.0,51.2,49.1,46.1,45,35,29,29.89,29.78,10,6,0,0.00
2012-9-15,91.1,77.0,61.7,49.4,43.4,36.2,55,32,15,29.92,29.77,9,4,13,0.00
2012-9-16,94.7,74.9,53.6,50.1,44.5,39.7,73,39,16,29.91,29.75,7,2,11,0.00
2012-9-17,92.4,76.0,55.2,55.3,49.5,44.1,71,42,21,29.85,29.68,8,2,12,0.00
2012-9-18,97.7,78.5,58.3,58.3,51.3,43.6,80,44,18,29.83,29.68,4,1,6,0.00
2012-9-19,100.6,80.1,58.7,51.5,40.0,24.5,63,31,7,29.80,29.66,6,1,8,0.00
2012-9-20,100.0,81.3,65.9,54.3,43.4,35.2,56,30,11,29.77,29.63,4,1,7,0.00
2012-9-21,101.5,80.6,63.1,52.9,43.3,33.6,63,31,10,29.75,29.59,4,1,8,0.00
2012-9-22,103.8,81.1,65.8,51.6,43.4,28.8,53,30,8,29.75,29.63,8,1,10,0.00
2012-9-23,101.1,81.4,61.3,59.8,43.9,30.2,60,34,9,29.79,29.66,4,1,7,0.00
2012-9-24,97.3,84.8,60.1,52.1,44.0,37.5,63,27,13,29.79,29.61,6,2,10,0.00
2012-9-25,94.2,79.2,59.1,54.8,46.6,43.7,61,35,20,29.71,29.55,6,2,10,0.00
2012-9-26,93.6,77.2,61.1,56.6,47.9,38.9,67,39,15,29.70,29.57,5,1,12,0.00
2012-9-27,93.7,77.2,58.4,51.3,46.1,40.2,65,36,16,29.78,29.66,5,1,7,0.00
2012-9-28,89.1,76.9,67.1,56.8,50.4,46.0,59,41,26,29.75,29.63,6,2,9,0.00
2012-9-29,94.1,80.0,67.1,55.1,49.8,45.4,58,37,21,29.81,29.64,5,2,10,0.00
2012-9-30,96.9,78.2,56.3,52.5,42.3,28.2,71,34,9,29.80,29.64,7,1,11,0.00
2012-10-1,99.8,74.6,54.2,45.5,33.2,-99.9,58,28,8,29.76,29.62,5,-30,6,0.00
2012-10-2,99.5,76.9,54.7,46.3,36.9,27.5,60,29,9,29.75,29.61,6,1,11,0.00
2012-10-3,98.1,76.9,55.5,47.8,35.8,29.9,54,27,10,29.83,29.70,6,1,9,0.00
2012-10-4,95.1,75.9,55.4,47.3,39.4,35.3,56,31,14,29.89,29.76,6,1,8,0.00
2012-10-5,93.3,72.1,50.6,46.1,37.4,30.2,71,34,12,29.88,29.69,5,1,6,0.00
2012-10-6,90.2,70.9,52.9,44.1,35.9,29.5,57,32,12,29.80,29.63,4,1,9,0.00
2012-10-7,90.7,71.5,55.4,45.3,39.9,32.3,60,35,13,29.77,29.64,4,1,8,0.00
2012-10-8,92.0,72.1,52.0,44.2,39.2,32.9,64,35,13,29.81,29.67,5,1,6,0.00
2012-10-9,92.4,73.4,52.5,47.2,37.9,26.6,66,33,10,29.81,29.66,4,1,7,0.00
2012-10-10,88.0,63.7,50.8,45.7,40.1,35.2,65,44,21,29.84,29.70,3,0,2,0.00
2012-10-11,82.4,70.1,56.3,59.6,47.0,38.4,69,45,27,29.73,29.63,3,0,4,0.01
2012-10-17,68.0,64.3,59.9,38.6,37.7,37.0,44,38,32,29.79,29.73,0,0,1,0.00
2012-10-18,86.3,71.3,57.0,61.7,52.7,37.7,89,54,34,29.88,29.71,7,2,12,0.00
2012-10-19,91.9,71.5,51.6,50.4,43.6,30.3,81,44,12,29.80,29.61,3,1,6,0.00
2012-10-20,88.9,71.4,51.8,47.2,42.8,39.5,65,39,20,29.72,29.56,5,1,8,0.00
2012-10-21,85.9,70.0,50.7,47.8,43.2,36.6,77,43,19,29.73,29.60,6,1,9,0.00
2012-10-23,75.9,67.9,60.6,44.8,43.9,42.9,54,42,32,29.70,29.65,0,0,1,0.00
2012-10-24,82.5,66.5,49.6,47.4,40.2,27.9,75,42,21,29.80,29.66,8,2,12,0.00
2012-10-25,81.5,60.0,39.8,32.2,25.2,13.4,64,31,9,29.89,29.76,5,1,8,0.00
2012-10-26,84.2,60.1,36.8,27.3,22.2,18.0,57,28,9,29.92,29.74,5,1,7,0.00
2012-10-27,87.5,66.4,46.1,32.0,28.7,23.1,44,27,12,29.83,29.68,11,3,19,0.00
2012-10-28,89.1,65.3,42.9,37.8,32.0,27.5,63,34,11,29.90,29.76,5,1,8,0.00
2012-10-29,88.8,65.3,44.1,38.7,33.4,27.3,66,35,11,29.98,29.82,6,1,9,0.00
2012-10-30,88.7,64.3,42.1,38.7,31.7,19.5,70,36,8,29.95,29.78,5,1,11,0.00
2012-10-31,87.9,63.9,41.7,38.2,29.5,18.6,66,33,8,29.91,29.75,3,0,5,0.00
2012-11-1,88.1,64.3,41.8,34.6,29.4,25.4,60,32,11,29.88,29.71,4,1,6,0.00
2012-11-2,77.2,52.6,43.1,36.9,32.4,28.8,61,48,19,29.84,29.78,1,0,1,0.00
2012-11-3,83.0,62.2,43.3,42.8,36.6,33.8,71,43,19,29.92,29.80,4,1,6,0.00
2012-11-4,85.9,62.7,42.1,38.6,34.9,32.8,72,41,16,29.98,29.86,6,1,11,0.00
2012-11-5,89.0,63.5,40.9,37.4,29.8,24.7,68,35,10,30.00,29.85,4,1,7,0.00
2012-11-6,90.2,63.4,40.2,32.6,27.2,20.8,62,31,8,30.00,29.84,5,1,10,0.00
2012-11-7,90.7,65.4,42.1,33.2,29.7,26.0,59,31,10,29.95,29.74,6,1,6,0.00
2012-11-8,84.3,66.9,53.9,47.0,36.3,27.8,60,36,13,29.81,29.68,10,1,18,0.00
2012-11-9,77.3,65.9,57.0,59.6,51.0,43.3,95,61,37,29.78,29.57,10,3,17,0.18
2012-11-10,61.1,53.3,45.8,49.6,34.6,24.3,88,52,28,29.94,29.62,10,4,16,0.01
2012-11-11,60.1,45.2,29.8,29.4,24.2,15.7,89,49,18,30.21,29.94,4,1,6,0.00
2012-11-12,68.3,52.1,29.1,25.4,14.9,6.5,79,33,10,30.20,30.01,10,4,15,0.00
2012-11-13,75.3,48.7,32.4,26.3,8.8,-99.9,67,29,10,30.06,29.90,5,-92,6,0.00
2012-11-14,83.4,56.6,33.2,25.8,17.8,3.8,63,31,5,30.04,29.89,2,0,4,0.00
2012-11-15,79.1,54.2,35.1,35.7,25.8,21.5,66,39,14,30.02,29.91,2,0,3,0.00
2012-11-17,77.0,68.4,49.5,48.2,39.2,32.6,62,36,25,30.00,29.88,2,1,5,0.00
2012-11-18,77.7,63.2,51.4,51.1,46.2,42.0,83,57,30,30.00,29.86,3,0,6,0.00
2012-11-19,77.2,58.1,41.1,46.5,41.4,36.0,90,58,26,30.09,29.97,3,0,7,0.00
2012-11-20,80.2,58.7,38.1,42.9,36.3,33.5,86,51,20,30.05,29.87,6,1,11,0.00
2012-11-21,80.3,62.0,45.9,42.7,38.4,34.1,73,45,23,29.92,29.80,3,1,5,0.00
2012-11-22,80.9,57.5,38.4,38.3,33.3,29.7,78,46,16,30.03,29.89,4,1,6,0.00
2012-11-23,84.2,61.7,38.4,35.7,31.7,29.7,73,39,15,30.09,29.95,7,2,15,0.00
2012-11-24,85.4,69.9,50.3,37.0,33.0,29.6,52,27,16,30.01,29.75,9,3,15,0.00
2012-11-25,81.9,58.8,39.6,39.4,29.9,14.5,72,40,8,29.85,29.69,5,1,7,0.00
2012-11-26,79.5,54.1,35.3,30.2,26.8,22.9,66,39,13,30.03,29.83,3,0,5,0.00
2012-11-27,83.3,58.2,36.1,32.8,28.7,24.4,68,38,12,30.10,29.93,4,0,5,0.00
2012-11-28,78.5,57.8,39.2,41.3,33.8,28.4,66,43,21,30.07,29.92,4,0,6,0.00
2012-11-29,74.9,54.4,36.5,38.2,33.2,30.0,80,49,22,30.09,29.98,5,1,9,0.00
2012-11-30,76.8,53.9,34.9,41.0,34.8,28.8,80,53,23,30.07,29.92,3,0,5,0.00
2012-12-1,76.8,53.0,35.2,40.2,34.5,29.4,86,55,19,30.03,29.90,3,0,6,0.00
2012-12-2,78.3,54.3,34.6,34.2,30.0,22.4,76,46,13,30.02,29.89,3,0,6,0.00
2012-12-3,74.1,53.7,37.2,39.5,34.1,29.6,76,51,26,30.07,29.93,5,1,7,0.00
2012-12-4,78.0,54.2,36.5,41.9,35.8,30.6,83,54,24,30.15,30.00,4,1,7,0.00
2012-12-5,83.1,56.6,37.7,36.8,32.1,27.5,76,46,14,30.05,29.84,3,0,6,0.00
2012-12-6,77.8,56.0,36.7,35.5,31.7,27.0,70,44,18,29.88,29.70,5,1,13,0.00
2012-12-7,74.1,54.0,37.7,37.8,33.0,29.1,73,49,25,29.84,29.73,5,1,9,0.00
2012-12-8,72.3,51.1,33.5,39.3,32.3,28.7,83,53,22,29.87,29.76,4,1,6,0.00
2012-12-9,68.4,49.9,31.7,33.3,26.0,19.6,82,46,16,30.00,29.85,7,2,13,0.00
2012-12-10,62.8,44.0,29.3,22.2,15.9,8.7,66,37,14,30.05,29.91,4,1,7,0.00
2012-12-11,67.5,41.7,22.6,14.6,11.6,9.0,57,34,11,30.05,29.92,4,1,5,0.00
2012-12-12,72.2,46.3,24.5,27.4,18.8,10.0,57,37,14,30.02,29.85,3,0,5,0.00
2012-12-13,70.6,52.9,35.3,51.3,34.1,21.8,95,53,22,29.91,29.61,9,2,12,0.45
2012-12-14,53.7,46.4,41.0,50.8,42.4,39.3,95,86,64,29.97,29.59,9,1,10,0.24
2012-12-15,55.7,48.3,44.4,46.5,43.6,40.3,94,84,59,29.99,29.87,6,1,12,0.09
2012-12-16,54.9,46.6,34.1,45.9,38.9,31.1,96,78,41,30.10,29.92,7,2,9,0.05
2012-12-17,62.0,42.2,29.4,40.5,34.8,28.7,98,79,39,30.15,29.93,4,0,6,0.00
2012-12-18,67.3,49.2,31.7,45.2,39.2,30.8,98,73,39,29.93,29.66,8,1,13,0.01
2012-12-19,56.6,43.6,29.3,45.7,33.3,27.8,95,69,43,30.24,29.66,15,4,23,0.00
2012-12-20,63.4,46.0,24.8,32.9,18.8,4.6,97,49,12,30.28,30.07,11,4,21,0.00
2012-12-21,69.3,55.2,40.5,34.1,15.9,4.2,64,25,12,30.08,29.90,11,4,18,0.00
2012-12-22,71.9,53.0,41.8,41.0,35.6,29.1,86,56,23,30.03,29.92,4,0,7,0.00
2012-12-23,68.8,47.7,33.4,41.1,35.9,31.4,97,70,25,30.07,29.91,3,0,4,0.00
2012-12-24,62.0,49.6,37.5,41.6,37.4,34.6,92,66,39,29.98,29.79,8,2,13,0.00
2012-12-25,55.1,47.5,40.7,41.2,34.1,27.8,87,61,39,30.01,29.89,3,1,6,0.00
2012-12-26,64.5,47.3,32.4,33.4,26.2,11.5,90,52,13,29.92,29.73,4,1,6,0.00
2012-12-27,53.6,39.1,25.7,35.7,29.2,23.6,94,70,36,30.01,29.78,14,1,20,0.00
2012-12-28,56.6,38.6,24.0,33.7,27.7,22.8,97,70,33,30.13,30.00,4,0,6,0.00
2012-12-29,66.6,42.8,24.3,28.2,23.7,19.4,91,56,18,30.09,29.88,5,0,8,0.00
2012-12-30,59.7,42.3,31.3,38.8,29.6,21.6,94,66,23,29.92,29.71,10,2,13,0.25
2012-12-31,48.8,39.6,28.4,40.2,34.6,27.2,96,84,46,30.16,29.92,9,1,11,0.19
2013-1-1,54.3,37.1,24.6,32.2,26.9,16.9,96,72,25,30.22,30.04,5,1,7,0.00